Temperature
17 17 17 18 17 18 19 21 22 21 21 21 21 20 19 17 17 14 12 12 12 12 13 13 13 12 12 13 13 13 13 13 13 13 13 13 13 13 13 13 13 13 14 14 14 14 14 14 14
17 17 17 18 18 18 19 21 21 21 21 20 19 19 19 15 13 13 12 12 12 12 12 12 12 12 12 12 12 13 13 13 13 13 13 13 13 13 13 13 13 13 13 14 14 14 14 14 14
17 17 17 18 18 18 20 21 20 20 19 19 18 17 17 14 13 12 11 11 11 11 12 12 12 12 12 12 12 12 12 12 12 12 12 13 13 13 13 13 13 13 13 13 13 14 14 14 14
16 17 18 18 18 19 20 20 20 19 19 18 18 16 14 13 12 11 11 11 11 11 11 12 11 12 12 12 12 12 12 12 12 12 12 12 12 13 13 13 12 12 13 13 13 13 13 13 13
16 17 17 17 18 19 20 21 20 19 18 18 17 16 12 12 12 11 11 11 11 11 11 11 11 11 11 11 12 12 12 12 12 12 12 12 12 12 12 12 12 12 12 12 13 13 13 13 13
17 18 17 17 18 19 19 20 20 19 19 18 17 15 12 11 11 11 11 10 10 10 11 11 11 11 11 11 11 11 11 11 11 11 12 12 12 12 12 12 12 12 12 12 12 12 12 12 12
17 16 17 18 18 19 19 20 19 19 18 17 17 15 11 11 11 10 10 10 10 10 10 10 10 10 10 11 11 11 11 11 11 11 11 11 11 11 11 11 11 12 11 12 12 12 12 12 12
16 16 17 18 18 18 19 19 19 18 17 17 16 15 12 10 10 10 10 10 9 9 10 10 10 10 10 10 10 10 11 11 11 11 11 11 11 11 11 11 11 11 11 11 11 11 11 11 11
16 15 16 17 18 18 18 18 17 16 16 15 14 13 12 11 10 10 9 9 9 9 9 9 9 10 10 10 10 10 10 10 10 10 10 10 10 11 11 11 11 11 11 11 11 11 11 11 11
16 14 15 17 18 18 17 17 16 15 15 14 13 12 11 10 10 10 9 9 9 9 9 9 9 9 9 9 10 10 10 10 10 10 10 10 10 10 10 10 10 10 10 10 10 10 10 11 11
15 14 16 16 17 17 16 16 16 15 14 14 13 11 10 10 9 9 9 9 9 9 8 8 8 8 9 9 9 9 9 9 9 9 9 9 9 10 10 10 10 10 10 10 10 10 10 10 10
15 15 16 15 15 15 16 16 15 14 14 14 14 12 11 10 9 9 9 9 8 8 8 8 8 8 8 8 8 9 9 9 9 9 9 9 9 9 9 9 9 9 9 9 9 9 9 10 10
14 14 15 14 14 14 14 14 14 14 13 13 13 12 11 10 9 9 8 8 8 8 8 8 8 8 8 8 8 8 8 8 8 8 8 8 9 9 9 9 9 9 9 9 9 9 9 9 9
15 14 14 14 13 13 13 13 13 13 13 12 12 11 10 10 9 8 8 8 7 7 7 7 7 7 7 7 7 7 7 7 8 8 8 8 8 8 8 8 8 8 8 8 8 8 8 8 9
14 13 13 13 13 13 13 12 12 13 13 12 11 11 10 9 9 8 8 8 8 7 7 7 7 7 7 7 7 7 7 7 7 7 7 7 7 7 7 7 7 7 7 7 7 8 8 8 8
13 13 12 13 13 13 12 11 12 13 12 12 11 11 10 9 9 8 8 7 7 7 7 7 6 6 6 6 6 6 6 6 6 6 6 6 7 7 7 7 7 7 7 7 7 7 7 7 7
12 12 13 13 13 13 11 11 12 13 12 12 11 11 10 9 8 8 7 7 7 7 6 6 6 6 6 6 6 5 6 6 6 6 6 6 6 6 6 6 6 6 6 6 6 6 6 7 7
12 12 13 13 13 12 11 11 12 12 12 11 11 11 10 9 9 8 7 7 6 6 6 6 6 5 5 5 5 5 5 5 5 5 5 6 6 6 6 6 6 6 6 6 6 6 6 6 6
12 12 12 13 13 12 11 11 11 12 11 11 11 11 10 9 9 8 7 6 6 5 5 5 5 5 5 4 4 4 4 5 5 5 5 5 5 5 5 5 5 5 5 5 5 5 5 5 5
12 11 12 12 12 12 11 11 11 11 11 11 11 11 10 9 8 7 7 6 6 5 5 5 5 4 4 4 4 4 4 4 4 4 4 4 5 5 5 5 5 5 5 5 5 5 5 5 5
11 11 11 11 11 11 10 9 10 11 11 11 11 10 10 9 8 7 6 5 5 5 5 4 4 4 4 3 3 3 3 3 4 4 4 4 4 4 4 4 4 4 4 4 4 4 4 4 4
10 11 11 10 9 8 9 8 10 11 10 10 10 10 10 9 8 7 6 5 5 4 4 4 4 3 3 3 3 3 3 3 3 3 3 3 3 3 3 4 4 4 4 4 4 3 3 3 3
9 10 10 9 9 8 9 8 9 11 10 10 9 9 9 8 7 6 5 5 4 4 3 3 3 3 3 2 2 2 2 2 3 3 3 3 3 3 3 3 3 3 3 3 3 3 3 3 3
9 9 9 8 8 7 8 8 9 9 10 9 9 9 8 8 7 6 5 5 4 3 3 3 2 2 2 2 2 2 2 2 2 2 2 2 2 2 2 2 2 2 2 2 2 2 2 2 2
8 8 7 7 6 7 9 9 8 9 9 9 8 8 8 7 6 5 5 4 3 3 2 2 2 2 2 2 2 2 1 1 1 1 2 2 2 2 2 2 2 2 2 2 2 2 2 2 2
7 8 7 7 7 8 8 8 8 8 7 8 8 7 7 6 5 5 4 3 3 2 2 2 2 1 1 1 1 1 1 1 1 1 1 1 1 1 1 1 1 1 1 1 1 1 1 1 1
7 7 8 7 7 7 7 8 7 7 6 6 6 6 6 5 5 4 4 3 2 2 2 1 1 1 1 1 1 1 1 1 0 0 1 1 1 1 1 1 1 1 1 1 0 0 0 0 0
7 7 7 6 6 7 8 8 7 6 5 5 5 5 5 4 4 3 3 2 2 2 1 1 1 0 0 0 0 0 0 0 0 0 0 0 0 -0 -0 -0 -0 0 0 -0 -0 -0 -0 -0 -0
6 6 6 6 6 6 6 7 7 6 5 4 4 4 4 3 3 2 2 2 1 1 1 1 0 0 -0 -0 -0 -0 -0 -0 -0 -0 -0 -0 -1 -1 -1 -1 -1 -1 -1 -1 -1 -1 -1 -1 -1
6 6 6 5 5 6 6 6 5 5 4 4 3 3 3 2 2 1 1 1 1 1 0 0 -0 -0 -0 -0 -0 -1 -1 -1 -1 -1 -1 -1 -1 -1 -1 -1 -1 -1 -1 -1 -1 -1 -1 -1 -1
Wind_Speed
10 11 7 3 3 5 7 6 3 2 3 6 7 6 6 7 5 7 4 5 8 8 11 10 11 12 12 12 12 12 13 13 13 14 14 14 14 14 14 14 14 14 14 14 14 14 14 14 14
8 6 4 3 5 6 6 6 3 2 5 6 6 5 5 7 8 8 4 6 8 9 11 11 12 12 12 13 13 13 13 13 13 13 14 14 14 14 14 14 14 14 14 14 14 13 13 13 13
8 6 3 4 5 6 5 1 5 7 8 5 4 5 4 6 7 5 4 6 8 10 12 12 13 13 13 13 13 13 13 13 14 14 14 14 14 14 14 14 14 14 13 13 13 13 13 13 13
4 3 4 5 8 7 5 1 6 7 5 4 5 6 5 6 5 6 6 7 9 10 12 12 13 13 13 13 13 13 13 13 13 14 14 14 14 15 14 13 13 13 13 13 13 13 12 12 13
4 4 5 7 9 7 4 1 4 5 6 5 4 5 6 5 8 8 6 7 9 9 11 12 12 12 12 12 12 12 13 13 13 14 14 14 14 14 15 14 14 13 13 13 12 12 12 12 12
4 4 6 9 9 8 6 2 3 3 5 5 4 4 6 6 7 6 6 7 9 9 10 11 12 12 11 11 11 11 12 12 13 13 13 13 13 13 13 13 13 13 13 12 12 12 11 11 11
4 4 7 9 8 7 5 3 4 4 4 4 3 5 7 6 7 6 7 7 8 9 9 9 10 10 10 11 11 11 11 12 12 12 12 12 13 13 12 12 12 12 12 12 12 12 12 11 10
4 4 8 9 9 6 2 2 0 1 1 2 2 4 6 8 8 7 7 7 7 7 7 8 8 9 9 9 11 11 11 11 11 11 11 11 12 12 11 11 11 12 12 12 12 11 11 10 9
4 5 8 7 6 4 3 3 2 4 4 3 4 6 8 15 11 8 7 6 5 6 6 6 6 7 8 9 9 10 10 10 10 9 9 9 9 10 10 11 11 11 12 11 11 11 11 10 9
4 6 8 5 4 1 2 3 4 4 3 3 5 8 12 12 11 10 8 8 7 6 5 5 5 6 6 7 7 7 7 7 7 7 7 8 9 9 9 9 9 10 10 10 10 9 9 9 8
5 6 5 5 4 2 1 2 3 4 4 6 8 11 13 11 10 10 9 8 8 7 5 5 5 6 5 5 5 5 6 6 7 7 7 8 7 7 7 7 7 7 8 7 7 7 8 8 8
7 6 5 4 2 3 2 2 3 5 3 2 5 13 13 12 11 11 10 9 8 7 6 5 5 5 5 5 4 5 5 5 6 6 6 6 5 5 5 5 5 5 5 5 6 6 7 8 8
11 8 6 3 2 3 3 4 4 6 3 3 6 12 13 12 11 9 8 8 7 7 7 6 5 4 4 4 4 4 4 5 6 5 6 6 5 4 4 5 5 5 5 5 5 6 6 7 7
6 6 7 6 6 5 5 7 6 6 5 5 7 10 11 11 11 10 9 9 9 8 7 6 5 5 5 4 3 3 5 6 6 5 5 5 5 5 4 4 4 5 5 6 6 6 5 5 6
4 5 8 9 8 6 5 9 10 8 7 7 8 9 10 10 10 11 10 10 9 9 8 7 6 5 4 4 4 4 5 6 5 5 5 5 6 5 5 4 4 4 5 6 6 5 5 4 5
7 8 9 9 10 8 7 10 7 9 10 9 8 8 9 9 10 10 9 9 9 9 9 8 6 5 4 4 4 4 5 5 5 5 5 5 5 5 5 4 3 4 4 4 3 2 3 3 3
8 9 9 7 9 7 9 8 5 7 9 9 9 9 9 9 9 8 8 8 9 9 9 8 7 6 5 4 4 4 4 5 5 5 5 5 5 5 5 4 3 3 3 3 2 2 2 3 3
7 8 9 9 9 9 10 9 6 7 8 9 8 8 9 9 10 9 9 9 8 8 9 8 8 7 5 4 3 3 3 3 4 4 5 5 4 4 5 4 3 3 3 2 2 3 3 2 2
7 9 10 6 5 8 11 12 10 8 8 9 9 9 9 9 8 9 9 9 9 9 9 9 9 7 6 5 4 3 3 3 2 3 5 5 4 4 4 3 3 3 2 2 2 2 3 2 2
12 12 11 5 4 5 9 12 10 9 11 10 9 9 8 8 8 9 9 9 9 10 10 9 9 8 7 5 4 2 3 2 2 3 4 4 4 4 3 3 3 2 2 2 2 2 1 1 2
12 11 9 6 3 5 5 9 10 8 9 8 8 7 7 8 9 9 9 8 8 9 10 9 9 9 8 6 4 4 3 3 2 2 2 2 4 4 4 3 3 2 2 2 1 1 1 1 1
10 6 6 6 4 5 6 6 7 8 9 10 10 8 7 7 7 8 8 9 9 8 7 8 9 8 8 7 7 7 5 4 3 3 3 2 3 3 4 4 3 2 2 2 1 1 1 1 0
5 2 4 6 6 6 7 6 6 7 8 9 8 7 6 6 7 8 8 8 7 7 7 7 7 8 8 7 7 6 5 3 3 4 4 3 2 3 3 3 3 2 2 2 1 1 1 1 1
2 1 3 3 3 7 9 8 6 6 7 5 6 6 5 5 5 6 7 6 6 6 6 6 7 7 7 7 7 6 6 5 6 5 4 3 2 2 3 3 3 3 2 2 1 1 1 0 0
4 2 1 2 5 7 6 7 6 2 4 6 6 5 5 5 5 5 7 7 6 7 7 7 7 7 7 7 7 6 6 6 7 6 5 4 3 2 3 2 2 2 2 2 2 1 1 0 1
6 5 4 4 5 3 4 7 3 3 4 5 5 4 4 5 4 5 6 6 6 6 6 7 7 7 7 7 6 6 6 5 4 4 4 4 3 3 3 3 2 2 2 2 2 1 0 1 1
4 6 4 3 4 4 5 4 2 4 4 4 4 4 3 3 4 4 5 5 6 6 6 6 6 6 6 6 6 6 6 5 4 4 4 3 3 3 3 3 2 2 2 2 1 1 1 0 0
4 2 2 4 4 5 6 6 4 5 4 4 3 3 2 3 3 3 4 4 4 5 5 5 5 5 5 5 5 4 5 5 4 4 4 4 4 4 4 3 2 2 1 2 1 1 1 1 0
4 4 4 4 4 3 4 3 1 4 5 5 3 3 2 2 2 2 3 3 4 4 4 4 5 4 4 4 4 4 4 4 4 4 4 4 4 4 4 3 2 2 1 1 1 1 1 1 1
3 4 5 4 4 4 3 2 4 6 5 4 3 3 2 2 2 2 3 3 4 4 4 4 5 4 4 4 4 4 4 4 4 4 4 4 4 3 3 3 2 2 1 1 2 2 2 2 2
Wind_Direction
279 257 245 250 243 232 238 241 234 102 53 47 42 41 41 41 46 112 135 94 95 98 103 101 93 88 85 83 82 78 77 75 73 70 67 65 63 60 59 58 59 60 58 58 60 61 62 62 61
272 261 252 238 240 236 235 222 208 119 92 74 58 48 59 71 75 103 110 96 101 101 104 101 97 92 87 82 80 80 80 76 73 71 69 66 64 62 60 59 59 59 59 57 58 59 61 61 60
260 250 242 234 235 241 248 177 117 96 90 95 85 48 46 77 96 109 112 112 99 97 99 101 98 93 88 83 79 77 79 78 75 72 71 68 65 64 62 60 59 58 58 58 57 58 61 61 58
244 228 242 243 241 240 253 233 111 110 103 101 113 101 77 51 72 101 112 107 102 95 98 102 99 94 89 84 80 76 75 77 76 74 72 70 66 63 62 60 58 56 56 57 57 57 61 60 56
237 234 229 232 241 251 268 112 118 133 140 143 143 117 106 76 82 99 110 103 100 95 97 103 99 95 90 85 82 78 76 75 77 77 74 70 68 66 63 59 57 54 53 54 56 57 60 58 55
232 235 234 230 229 230 235 203 165 173 153 152 158 129 110 116 105 110 105 96 96 98 98 103 100 96 93 90 85 81 77 76 75 77 74 71 68 67 64 61 59 56 53 52 52 54 56 57 55
240 239 244 247 235 230 218 182 202 185 170 151 150 128 121 133 120 119 109 98 91 94 98 99 100 98 95 91 88 84 82 79 76 76 78 74 70 67 65 61 60 58 55 54 53 52 51 55 53
260 263 244 244 242 241 203 162 127 102 141 96 123 146 141 146 130 123 110 101 98 92 93 98 103 102 97 93 91 86 85 82 79 76 78 78 74 70 66 62 61 60 57 57 53 51 49 46 46
258 246 242 242 245 229 161 168 112 53 76 75 61 58 109 130 134 130 121 113 112 106 100 95 96 96 98 98 95 91 90 87 85 80 77 77 72 71 65 63 62 60 57 56 52 49 47 42 40
221 233 238 265 289 259 161 167 143 135 147 151 120 98 116 134 145 150 152 151 144 130 119 103 93 93 95 101 102 98 94 94 89 86 75 75 72 74 71 67 62 58 54 52 47 43 39 37 35
211 231 243 271 312 332 234 193 159 175 206 188 169 148 143 152 159 166 166 163 155 143 130 115 100 100 94 90 99 92 90 88 81 82 77 77 79 79 76 71 63 55 47 41 37 40 39 39 36
227 235 250 263 317 308 265 224 203 210 216 108 145 151 153 164 173 177 174 169 156 146 140 128 111 105 101 96 93 91 87 81 75 74 80 80 74 73 72 66 60 52 45 34 36 41 39 41 38
229 232 236 237 240 263 277 251 235 224 179 112 123 144 162 173 178 177 171 164 155 152 148 144 128 119 108 97 96 94 87 88 84 76 72 77 76 75 73 65 57 49 47 38 35 39 40 41 38
231 224 223 218 223 230 235 242 230 225 173 161 157 164 172 179 178 175 174 171 166 162 156 150 145 127 115 104 94 96 97 100 97 85 76 78 79 80 78 68 55 49 44 40 42 43 40 42 45
236 239 238 221 213 211 217 243 225 212 185 184 182 178 179 181 179 181 180 174 169 164 157 156 152 131 122 118 114 105 104 105 99 95 91 82 79 80 81 76 61 53 51 50 50 46 46 44 47
229 230 233 211 202 193 200 243 217 193 191 198 192 186 183 183 183 181 175 170 165 161 160 161 157 147 136 122 114 111 112 107 106 108 99 88 81 81 84 79 69 66 66 60 61 46 43 40 35
219 231 231 212 198 185 208 243 205 188 191 200 197 192 188 184 183 177 171 168 165 164 160 160 154 153 143 126 117 110 107 106 112 113 105 95 86 85 90 85 78 73 68 57 56 47 50 51 38
220 230 235 222 195 199 221 239 220 204 204 208 204 196 190 188 188 177 171 166 163 161 158 158 154 152 140 128 120 110 101 98 106 107 111 110 101 91 91 92 85 73 69 55 54 60 56 56 42
266 258 255 247 189 204 229 240 234 212 212 214 207 199 196 193 180 171 169 165 163 162 160 162 160 159 154 156 155 151 150 142 124 115 122 122 114 102 99 96 86 77 83 87 75 70 78 51 37
255 257 260 262 216 229 249 252 240 219 214 210 207 201 193 182 174 172 168 167 171 170 168 168 167 167 165 165 161 156 144 141 127 116 123 127 117 116 118 104 103 92 94 87 82 76 77 60 33
247 247 254 265 288 257 267 268 234 223 215 209 206 199 187 179 178 172 171 169 170 175 174 175 172 171 168 155 141 133 116 114 117 134 143 125 126 128 125 117 110 109 97 113 100 98 87 98 4
246 250 252 253 252 246 207 264 237 212 208 209 202 194 185 173 168 170 173 174 175 175 173 172 170 171 168 162 165 165 165 165 172 170 160 140 132 128 120 123 116 105 95 121 139 83 101 111 92
249 297 260 245 240 256 230 245 255 198 213 208 189 180 171 164 162 166 173 175 171 167 166 168 170 173 170 172 172 170 164 157 144 145 147 148 132 126 120 118 120 112 97 100 84 64 65 89 147
226 261 249 248 235 245 220 219 257 200 199 170 162 164 160 156 156 160 162 157 156 155 160 165 170 176 173 172 173 173 165 157 152 154 160 160 154 134 134 124 115 111 110 107 102 69 78 71 92
198 177 196 215 216 238 201 213 242 154 135 150 153 156 146 141 145 153 156 158 160 162 167 171 174 179 177 174 178 178 171 167 167 167 167 163 162 164 166 145 134 126 122 121 115 98 80 63 107
211 204 198 216 227 251 206 221 223 144 102 97 98 111 116 127 139 147 155 159 163 164 167 173 178 179 177 177 179 176 169 169 172 167 163 166 169 168 160 145 137 132 130 129 118 102 103 70 95
208 222 250 282 282 267 236 212 172 118 113 110 102 106 119 120 123 133 141 150 160 166 171 173 176 178 178 176 173 175 171 169 167 158 149 156 152 151 145 145 137 133 132 132 129 131 134 92 47
239 233 211 219 230 244 246 225 204 167 166 137 126 125 112 115 120 124 136 144 152 161 163 162 169 175 170 168 172 172 169 169 164 157 154 155 149 141 145 145 145 145 140 144 141 147 143 144 221
186 205 219 223 234 232 256 258 46 137 145 141 133 116 117 111 115 122 124 130 135 140 153 161 164 158 161 165 161 162 168 166 158 155 153 150 143 143 147 149 151 157 162 160 157 173 170 185 223
207 208 198 209 241 234 254 275 46 72 89 95 89 76 75 105 104 106 112 113 119 136 152 159 160 157 159 161 160 162 158 153 149 147 146 144 144 143 144 145 151 160 164 180 186 196 197 200 215
Height
1495 1497 1499 1501 1503 1502 1500 1491 1485 1486 1488 1491 1493 1494 1497 1503 1509 1520 1521 1520 1520 1520 1522 1524 1525 1526 1527 1528 1529 1530 1530 1531 1532 1532 1532 1533 1533 1534 1534 1535 1535 1535 1535 1535 1536 1536 1537 1537 1538
1495 1497 1500 1500 1502 1504 1498 1487 1486 1487 1490 1493 1496 1498 1500 1507 1511 1515 1517 1519 1519 1520 1522 1523 1525 1526 1527 1528 1529 1530 1531 1532 1532 1532 1533 1533 1534 1534 1534 1535 1535 1535 1536 1536 1536 1536 1537 1538 1539
1495 1497 1499 1497 1497 1498 1493 1484 1485 1488 1492 1495 1498 1501 1505 1510 1512 1514 1516 1518 1519 1520 1521 1523 1525 1526 1527 1528 1529 1530 1531 1532 1532 1533 1533 1533 1534 1534 1534 1535 1535 1536 1536 1536 1537 1537 1538 1539 1539
1495 1498 1497 1497 1495 1489 1487 1485 1485 1489 1493 1496 1499 1504 1508 1512 1512 1513 1515 1517 1518 1520 1521 1523 1524 1526 1527 1528 1529 1530 1531 1532 1532 1533 1533 1533 1533 1534 1534 1534 1535 1536 1536 1537 1537 1537 1538 1539 1540
1495 1496 1496 1496 1492 1487 1484 1484 1485 1489 1493 1497 1499 1503 1508 1511 1511 1513 1515 1516 1518 1519 1520 1522 1524 1525 1527 1528 1529 1530 1531 1532 1532 1533 1533 1533 1533 1534 1534 1534 1535 1535 1536 1537 1537 1538 1539 1539 1540
1494 1492 1495 1494 1489 1485 1484 1484 1486 1489 1492 1496 1499 1503 1508 1510 1511 1512 1514 1516 1517 1518 1520 1522 1523 1525 1526 1527 1528 1529 1530 1531 1532 1532 1533 1533 1534 1534 1534 1534 1535 1535 1536 1536 1537 1538 1539 1540 1540
1492 1490 1490 1486 1485 1483 1482 1483 1485 1488 1491 1495 1498 1502 1506 1508 1510 1511 1513 1515 1516 1518 1519 1521 1522 1524 1525 1526 1528 1529 1530 1530 1531 1532 1532 1533 1533 1534 1534 1534 1535 1535 1536 1536 1537 1538 1538 1539 1540
1488 1488 1485 1483 1483 1482 1482 1483 1486 1488 1491 1494 1497 1500 1504 1506 1508 1510 1512 1514 1515 1517 1518 1520 1521 1523 1524 1525 1527 1528 1529 1530 1531 1531 1532 1532 1533 1533 1534 1534 1534 1535 1535 1536 1537 1537 1538 1539 1540
1487 1489 1485 1481 1480 1480 1481 1483 1487 1489 1491 1494 1497 1498 1500 1503 1506 1508 1510 1512 1514 1516 1517 1519 1520 1521 1523 1524 1526 1527 1528 1529 1530 1530 1531 1531 1532 1532 1533 1533 1534 1534 1535 1536 1536 1537 1538 1539 1540
1484 1485 1481 1479 1477 1478 1480 1483 1486 1489 1491 1494 1497 1498 1500 1501 1504 1506 1507 1509 1511 1513 1516 1517 1519 1520 1521 1523 1524 1525 1526 1528 1528 1529 1530 1530 1531 1532 1532 1533 1533 1534 1534 1535 1536 1536 1537 1538 1539
1480 1480 1478 1479 1478 1479 1481 1483 1485 1487 1490 1492 1494 1496 1498 1500 1502 1504 1506 1507 1510 1512 1514 1516 1517 1519 1520 1521 1522 1524 1525 1526 1527 1528 1529 1529 1530 1531 1531 1532 1532 1533 1534 1534 1535 1535 1536 1537 1538
1477 1476 1477 1478 1479 1480 1481 1482 1484 1486 1488 1489 1491 1492 1495 1497 1499 1501 1503 1505 1508 1510 1512 1514 1515 1517 1518 1520 1521 1522 1523 1524 1526 1527 1527 1528 1529 1530 1530 1531 1531 1532 1533 1533 1533 1534 1535 1536 1536
1475 1475 1477 1478 1479 1480 1481 1482 1483 1484 1486 1488 1489 1491 1492 1494 1497 1500 1502 1504 1506 1507 1509 1511 1513 1515 1516 1518 1519 1520 1521 1523 1524 1525 1526 1527 1528 1528 1529 1530 1530 1531 1532 1532 1532 1533 1534 1534 1535
1472 1473 1475 1476 1478 1479 1480 1480 1482 1481 1484 1485 1487 1488 1490 1492 1494 1497 1499 1501 1502 1504 1507 1509 1511 1513 1514 1515 1517 1518 1520 1521 1522 1523 1524 1525 1526 1527 1528 1528 1529 1530 1530 1531 1531 1532 1532 1533 1533
1472 1474 1474 1473 1475 1476 1479 1479 1476 1478 1481 1482 1484 1486 1487 1489 1491 1493 1495 1497 1499 1501 1504 1506 1508 1510 1512 1513 1515 1516 1517 1519 1520 1521 1522 1523 1524 1525 1526 1527 1527 1528 1529 1529 1530 1530 1531 1531 1532
1471 1472 1473 1468 1470 1473 1479 1476 1472 1473 1476 1478 1480 1482 1484 1486 1488 1490 1492 1494 1496 1499 1501 1503 1505 1507 1509 1511 1512 1513 1515 1516 1518 1519 1520 1521 1522 1523 1524 1525 1526 1526 1527 1527 1528 1529 1529 1530 1530
1470 1470 1467 1467 1466 1468 1473 1471 1469 1470 1471 1474 1476 1478 1481 1483 1485 1487 1489 1491 1493 1495 1497 1499 1502 1504 1506 1508 1509 1511 1512 1514 1515 1517 1518 1519 1520 1521 1522 1523 1524 1524 1525 1526 1526 1527 1527 1528 1528
1466 1464 1462 1463 1463 1465 1468 1467 1467 1467 1468 1470 1472 1474 1477 1479 1480 1483 1485 1488 1490 1492 1494 1496 1498 1501 1503 1505 1506 1508 1509 1511 1513 1514 1515 1516 1518 1519 1520 1521 1521 1522 1523 1524 1525 1525 1526 1526 1526
1460 1460 1460 1457 1458 1462 1463 1463 1462 1463 1464 1466 1467 1470 1472 1474 1478 1480 1482 1484 1487 1489 1490 1492 1494 1496 1498 1500 1502 1503 1505 1507 1510 1511 1513 1514 1515 1516 1517 1518 1519 1520 1521 1522 1523 1524 1524 1524 1525
1460 1461 1459 1458 1458 1460 1461 1459 1457 1457 1459 1460 1462 1464 1467 1471 1473 1476 1478 1480 1482 1484 1486 1488 1490 1492 1494 1497 1499 1501 1503 1505 1507 1509 1510 1511 1512 1514 1515 1516 1517 1518 1519 1520 1521 1522 1522 1522 1523
1458 1459 1459 1461 1460 1459 1462 1460 1454 1452 1453 1455 1457 1460 1462 1465 1468 1471 1474 1475 1478 1480 1482 1484 1486 1489 1491 1493 1496 1498 1500 1501 1503 1505 1506 1508 1509 1511 1512 1513 1514 1516 1517 1518 1519 1520 1520 1520 1522
1458 1455 1457 1460 1465 1466 1463 1468 1451 1448 1449 1450 1452 1455 1458 1461 1465 1467 1469 1471 1473 1476 1478 1480 1483 1485 1487 1490 1491 1493 1494 1496 1498 1501 1503 1505 1506 1508 1509 1511 1512 1513 1514 1516 1517 1517 1518 1519 1519
1456 1455 1456 1458 1462 1465 1461 1465 1451 1444 1447 1446 1448 1451 1454 1458 1461 1463 1465 1467 1470 1473 1475 1477 1479 1481 1484 1486 1488 1490 1492 1494 1496 1497 1499 1501 1503 1504 1506 1508 1509 1510 1512 1513 1514 1515 1516 1516 1517
1455 1457 1457 1459 1463 1467 1456 1460 1450 1443 1441 1443 1446 1449 1452 1455 1458 1460 1462 1465 1467 1470 1472 1474 1476 1478 1480 1482 1484 1487 1488 1490 1492 1493 1495 1497 1499 1500 1503 1504 1506 1507 1509 1510 1511 1512 1513 1514 1514
1456 1460 1464 1466 1467 1459 1447 1450 1447 1438 1437 1440 1443 1446 1449 1452 1455 1457 1459 1461 1464 1466 1468 1470 1472 1474 1476 1478 1481 1483 1485 1487 1489 1490 1491 1493 1495 1497 1499 1500 1502 1504 1505 1507 1508 1509 1509 1510 1511
1454 1455 1461 1463 1458 1451 1446 1447 1443 1438 1438 1440 1442 1445 1448 1451 1453 1455 1457 1458 1460 1462 1465 1467 1468 1470 1472 1474 1477 1480 1482 1484 1486 1488 1489 1490 1492 1494 1495 1497 1499 1500 1502 1503 1504 1505 1506 1507 1508
1453 1454 1451 1455 1452 1453 1446 1440 1442 1439 1440 1442 1443 1445 1447 1450 1451 1453 1455 1456 1458 1460 1461 1464 1465 1467 1469 1471 1474 1476 1478 1481 1483 1485 1486 1488 1489 1491 1492 1494 1495 1496 1498 1500 1501 1501 1502 1504 1504
1451 1451 1455 1458 1457 1452 1440 1437 1441 1441 1442 1442 1444 1445 1447 1449 1450 1452 1453 1454 1456 1457 1459 1461 1463 1465 1467 1469 1471 1473 1475 1477 1479 1481 1483 1484 1486 1487 1488 1490 1491 1493 1494 1496 1497 1498 1499 1500 1501
1451 1453 1452 1453 1452 1452 1447 1443 1436 1437 1439 1442 1443 1445 1446 1448 1449 1451 1452 1453 1454 1455 1457 1459 1461 1462 1464 1466 1467 1470 1472 1474 1476 1477 1479 1481 1482 1483 1484 1486 1488 1490 1491 1492 1493 1495 1496 1497 1497
1447 1448 1451 1456 1453 1449 1449 1447 1439 1439 1440 1442 1444 1446 1446 1447 1448 1449 1450 1451 1452 1453 1455 1456 1458 1459 1461 1463 1465 1467 1469 1470 1472 1473 1475 1477 1478 1480 1482 1483 1485 1486 1487 1488 1490 1491 1492 1493 1494